User: anonymous
Location: Unspecified
(0.0000°N, 0.0000°E)
Time: 20:18:31
(UTC+00:00)
Language:

N. Korean satellite - Orbit

View from above orbital plane
View from above orbital plane
View from above satellite
View from above satellite

Ground track
Ground track

The orbit data is extracted from the following two-line orbital elements,

1 39026U 12072A   14273.41734019  .00009857  00000-0  50855-3 0  1502
2 39026 097.3179 309.1652 0052982 064.1240 296.5441 15.15290272 99303
Epoch (UTC): 30 September 2014 10:00:58
Eccentricity: 0.0052982
inclination: 97.3179°
perigee height: 483 km
apogee height: 556 km
right ascension of ascending node: 309.1652°
argument of perigee: 64.1240°
revolutions per day: 15.15290272
mean anomaly at epoch: 296.5441°
orbit number at epoch: 9930

The dashed part of the orbit path shows where the satellite is in the earth's shadow,  

DLR